Tracking 19638 objects as of 20-Apr-2019
HD Live streaming from Space Station
objects crossing your sky now

FLOCK 3P 51

Track FLOCK 3P 51 now!
10-day predictions
FLOCK 3P 51 is classified as:


NORAD ID: 41952
Int'l Code: 2017-008E
Perigee: 491.6 km
Apogee: 503.0 km
Inclination: 97.4 °
Period: 94.4 minutes
Semi major axis: 6868 km
RCS: Unknown
Launch date: February 15, 2017
Source: United States (US)
Launch site: SRIHARIKOTA (SRI)
aabbcc
Your satellite tracking list
Your tracking list is empty




NASA's NSSDC Master Catalog

Two Line Element Set (TLE):
1 41952U 17008E   19110.43374310  .00001376  00000-0  57658-4 0  9996
2 41952  97.4114 178.1023 0008320  20.8085 339.3490 15.25210578120928
Source of the keplerian elements: AFSPC